Location: Obersdorf
(47.4079°N, 10.2781°E)
Time: 04:20:39
(UTC+02:00)

COSMOS 2251 DEB - Pass Details

Date: 05 July 2022
Orbit: 490 x 569 km, 73.9° (Epoch: 11 August)

Event Time Altitude Azimuth Distance (km) Brightness Sun altitude
Exits shadow 03:43:29 - 156° (SSE) 2,342 ? -13.0°
Reaches altitude 10° 03:45:02 10° 144° (SE) 1,852 ? -12.9°
Maximum altitude 03:47:54 19° 100° (E) 1,378 ? -12.6°
Drops below altitude 10° 03:50:45 10° 55° (NE) 1,831 ? -12.4°
Sets 03:53:25 0° 37° (NE) 2,712 ? -12.1°
